Temp
4 4 5 5 5 5 5 5 5 5 5 5 6 6 6 6 6 6 6 6 6 6 6 6 6 6 6 7 7 7 7 7 8 8 8 8 8 8 8 8 8 9 9 9 9 10 10 10 10 10 10 10 10 10 10 11 11 11 12 12 13 13 13 14 14 14 14 13 13
4 4 4 5 5 5 5 4 5 5 5 5 5 5 6 6 6 6 6 5 6 6 6 6 6 6 6 7 7 7 7 7 7 7 8 8 8 8 8 8 8 8 8 9 9 9 10 10 10 10 10 10 10 10 10 10 10 11 11 11 11 12 12 13 13 13 13 13 13
4 4 4 4 4 4 4 4 4 5 5 5 5 5 5 5 5 6 5 5 5 5 6 6 6 6 6 7 7 7 7 7 7 7 7 7 7 7 7 8 8 8 8 8 8 9 9 9 10 10 10 10 10 10 10 10 10 10 10 10 10 11 11 11 12 12 13 13 13
5 4 4 4 4 4 4 4 4 4 5 5 5 5 5 5 5 5 5 5 5 5 5 6 6 6 6 6 7 7 7 7 7 7 7 7 7 7 7 7 7 8 8 8 8 8 8 9 9 10 10 10 10 10 10 10 10 10 10 10 10 10 10 10 11 11 12 12 12
5 5 4 4 4 4 4 4 4 4 4 5 5 5 5 5 6 6 5 5 5 5 5 5 6 6 6 6 6 6 6 7 7 7 7 7 7 7 7 7 7 7 7 7 7 8 8 8 9 9 9 9 9 9 9 10 10 10 10 10 10 10 10 10 10 11 11 12 12
5 5 4 4 4 4 4 4 4 4 4 4 4 5 5 5 5 6 5 5 5 5 5 5 5 5 6 6 6 6 6 6 6 6 6 6 7 7 7 7 7 7 7 7 7 7 7 8 8 9 9 9 9 9 9 9 10 10 10 10 10 10 10 10 10 10 11 12 12
5 5 5 4 4 4 4 4 4 4 4 4 4 4 5 5 5 5 5 5 5 5 5 5 5 5 5 5 5 5 6 6 6 6 6 6 6 6 6 6 7 7 7 7 7 7 7 7 7 8 8 9 9 9 9 9 9 10 10 10 10 10 10 10 10 10 11 11 11
5 5 5 4 4 4 4 4 4 4 4 4 4 4 5 5 5 5 5 5 5 5 5 5 5 5 5 5 5 5 5 5 5 6 6 6 6 6 6 6 6 6 7 7 6 6 7 7 7 7 8 8 8 8 8 8 9 9 10 10 10 10 10 10 10 10 10 10 10
5 5 4 4 4 4 4 4 4 4 3 4 4 4 4 5 5 5 5 5 5 5 5 5 5 5 5 5 5 5 5 5 5 5 5 6 6 6 6 6 6 6 6 6 6 6 6 6 7 7 7 8 8 8 8 8 8 9 9 9 9 9 9 9 10 10 10 10 10
5 5 4 4 4 4 4 3 3 3 3 3 3 4 4 4 4 4 4 4 4 4 4 4 4 5 5 5 5 5 5 5 5 5 5 5 6 6 6 5 5 5 5 6 6 6 6 6 6 7 7 7 7 8 8 8 8 8 8 8 9 9 9 9 9 10 10 10 10
5 5 4 4 4 4 3 3 3 3 3 3 3 3 4 4 4 4 4 4 3 3 4 4 4 4 4 5 5 5 5 5 5 5 5 5 5 5 6 5 5 5 5 5 5 5 5 5 6 6 6 6 7 7 7 8 8 8 8 8 8 8 9 9 9 9 9 10 10
5 5 4 4 4 4 3 3 3 3 3 3 3 3 3 3 4 4 4 3 3 3 3 3 3 3 4 4 4 5 5 5 5 5 5 5 5 5 5 5 5 5 4 4 4 4 4 5 5 6 6 6 6 6 7 7 7 8 8 8 8 8 8 8 8 9 9 9 9
5 5 4 4 4 3 3 3 3 3 3 3 3 3 3 3 3 3 3 3 3 3 3 3 3 3 3 4 4 4 5 5 5 4 4 4 5 5 5 5 5 5 4 4 4 4 4 4 5 5 5 5 5 6 6 6 7 7 7 8 8 8 8 8 8 8 8 8 9
5 5 4 4 4 3 3 3 3 3 3 3 3 3 3 3 3 3 3 3 3 3 2 2 3 3 4 4 4 4 4 4 5 4 4 4 4 4 5 5 5 5 4 4 4 3 3 4 4 5 5 5 5 5 5 5 6 6 7 7 7 8 8 8 8 8 8 8 8
5 5 5 4 4 3 3 3 3 3 3 3 3 3 3 3 2 2 2 2 2 2 2 2 2 3 3 3 4 4 4 4 5 5 4 4 4 4 4 4 4 4 4 4 4 3 3 4 4 4 4 5 5 5 5 5 5 6 6 6 7 7 7 7 7 8 8 8 8
5 5 5 4 4 3 3 3 3 3 3 3 3 3 3 3 2 2 2 2 2 2 2 2 2 2 3 3 4 4 4 4 4 5 4 4 3 3 3 4 4 4 4 4 3 3 3 3 4 4 4 4 4 4 4 4 5 5 5 6 6 6 6 7 7 7 7 7 8
5 5 5 4 4 3 3 3 3 3 3 3 3 3 3 2 2 2 2 2 2 2 2 2 2 2 2 3 3 4 4 4 4 4 4 4 3 3 3 3 3 3 4 3 3 3 3 3 3 4 4 4 4 4 4 4 4 4 5 5 5 6 6 6 6 7 7 7 7
5 5 5 4 4 4 4 3 3 3 3 3 3 3 3 3 2 2 2 2 2 2 2 2 2 2 2 3 3 3 4 4 4 4 4 4 3 3 2 2 2 3 3 3 3 3 3 3 3 3 4 4 4 3 4 4 4 4 4 4 5 5 5 5 6 6 6 7 7
5 5 5 5 5 4 4 4 4 3 3 3 3 3 3 2 3 3 3 3 2 2 2 1 1 2 2 2 3 3 3 4 4 4 4 4 3 3 2 2 2 2 3 3 3 3 3 3 3 3 3 3 3 3 3 3 3 4 4 4 4 4 5 5 5 5 6 6 6
5 5 5 5 5 5 5 4 4 4 4 3 3 3 2 2 2 3 3 3 3 2 2 1 1 2 2 2 3 3 3 3 3 3 3 3 3 3 2 2 2 2 2 2 2 2 2 3 3 3 3 3 3 3 3 3 3 3 4 4 4 4 4 5 5 5 5 5 6
5 5 5 5 5 5 5 5 4 4 4 3 3 3 2 2 2 2 3 3 3 3 2 2 2 2 2 2 3 3 3 3 3 3 3 3 3 3 3 2 2 2 2 2 2 2 2 3 3 3 3 3 3 3 3 4 3 3 3 4 4 4 4 4 5 5 5 5 5
5 5 5 5 5 5 5 5 5 4 4 4 3 3 3 2 2 2 3 3 3 3 2 2 2 2 2 3 3 3 3 3 3 3 3 3 3 3 3 2 2 1 1 2 2 2 2 2 3 3 3 3 3 3 3 3 3 3 4 4 4 4 4 4 4 5 5 5 5
4 4 4 4 4 4 4 4 4 4 4 4 3 3 3 2 2 2 2 2 3 3 3 3 3 3 3 3 3 3 3 3 3 3 3 3 3 3 3 2 2 1 1 1 2 2 2 2 2 3 3 3 3 3 3 3 3 3 3 4 4 4 4 4 4 4 5 5 5
3 4 4 4 4 4 4 4 4 4 4 4 4 3 3 2 2 2 2 2 2 2 3 3 3 3 3 3 3 3 2 2 2 3 3 2 2 2 2 2 2 2 1 1 1 1 1 2 2 2 2 3 3 3 2 2 3 3 3 3 3 4 4 4 4 4 4 4 4
3 3 3 3 3 3 4 4 4 4 4 4 4 3 3 3 2 2 2 2 2 2 2 2 3 3 3 3 3 3 2 2 2 2 2 2 2 2 2 2 2 2 2 2 1 1 1 1 2 2 2 2 2 3 2 2 2 2 3 3 3 3 3 3 4 4 4 4 4
3 3 3 3 3 3 3 3 4 4 4 4 4 4 3 3 2 2 2 2 2 2 2 2 2 3 3 3 3 2 2 2 2 2 2 2 2 2 2 2 2 2 2 2 2 1 1 1 1 1 1 2 2 2 2 2 2 2 2 2 2 3 3 3 3 3 4 4 4
3 3 3 3 3 3 3 3 4 4 4 4 4 4 3 3 3 2 2 2 2 2 2 2 2 2 2 3 3 3 2 2 2 2 2 2 2 2 2 2 2 2 2 2 2 1 1 1 1 1 1 1 1 2 2 2 2 2 2 2 2 2 2 2 3 3 3 3 4
3 3 2 2 2 2 3 3 3 3 4 4 4 4 4 3 3 3 2 2 2 2 2 2 2 2 2 2 3 3 3 3 2 2 2 2 2 2 2 2 2 2 2 2 1 1 1 2 2 2 1 1 1 1 1 1 1 1 1 2 2 2 2 2 2 3 3 3 3
3 3 2 2 2 2 2 3 3 3 4 4 4 4 3 3 3 3 3 2 2 2 2 2 2 2 2 2 2 3 3 3 3 2 2 2 2 2 2 2 2 2 2 1 1 1 1 2 2 2 1 1 1 1 1 1 1 1 1 1 1 2 2 2 2 2 2 3 3
3 3 3 2 2 2 2 2 3 3 3 3 4 3 3 3 3 3 3 3 3 3 2 2 2 2 2 2 2 3 3 3 3 3 2 2 2 2 2 2 2 2 2 1 1 1 1 2 2 2 2 1 1 1 1 1 1 1 1 1 1 1 1 2 2 2 2 2 2
3 3 3 3 2 2 2 2 3 3 3 3 3 3 3 3 3 3 3 3 3 2 2 2 2 2 2 2 2 3 3 3 3 3 2 2 2 2 2 2 2 2 2 1 1 1 1 2 2 2 2 1 1 1 1 1 1 1 1 1 1 1 1 1 1 1 1 2 2
4 3 3 3 3 2 2 2 2 2 2 2 3 3 3 3 3 3 3 3 2 2 2 2 2 2 2 2 2 2 3 3 3 3 3 3 2 2 2 2 2 2 2 1 1 1 2 2 2 2 2 1 1 1 1 1 1 1 1 1 1 0 0 0 1 1 1 1 1
4 4 3 3 3 3 2 2 2 2 2 2 2 3 3 3 3 3 2 2 2 2 2 2 2 2 2 2 2 2 2 3 3 3 3 3 2 2 2 2 2 2 2 1 1 1 2 2 2 2 2 1 1 1 1 1 1 1 1 1 1 0 0 -0 0 1 1 1 1
4 4 4 3 3 3 3 2 2 2 2 2 2 2 3 3 2 2 2 2 2 2 2 2 2 2 2 2 2 2 2 2 3 3 3 3 2 2 2 2 2 2 2 1 1 1 2 2 2 2 2 1 1 1 1 1 1 1 1 1 1 0 0 -0 -0 0 0 1 1
4 4 4 3 3 3 3 2 2 2 2 2 2 2 2 2 2 2 2 2 2 2 2 2 2 2 2 2 2 2 2 2 2 2 2 2 2 2 2 2 2 2 1 1 1 1 1 2 2 2 2 2 1 1 0 1 1 1 1 1 0 0 0 -0 -0 -0 0 0 1
5 4 4 4 3 3 3 2 2 2 2 2 2 2 2 2 2 2 2 2 1 1 1 2 2 2 2 2 2 2 2 2 2 2 2 2 2 2 2 2 2 2 1 1 1 1 1 1 1 2 2 2 1 0 0 0 0 0 0 0 0 0 0 0 -0 -0 -0 0 0
5 4 4 4 4 3 3 3 2 2 2 2 2 2 2 2 2 2 2 2 1 1 1 1 1 2 2 2 2 2 2 2 2 2 2 2 2 2 2 2 2 2 1 1 1 1 1 1 1 2 2 1 1 0 -0 -0 -0 -0 0 0 0 0 0 0 -0 -1 -0 -0 0
5 5 4 4 4 3 3 3 2 2 2 2 2 2 2 2 2 2 2 1 1 1 1 1 1 1 2 2 2 2 2 2 2 2 2 2 2 2 2 2 2 2 2 1 1 1 1 1 1 2 2 2 1 1 -0 -0 -1 -0 -0 0 0 0 0 0 -0 -1 -1 -0 -0
5 5 4 4 4 4 3 3 3 2 2 2 2 2 2 2 2 2 2 1 1 1 1 1 1 1 1 1 1 1 2 2 2 2 2 2 2 2 3 2 2 2 2 1 1 0 1 1 1 1 2 2 1 1 0 -0 -0 -1 -0 -0 0 0 0 -0 -0 -1 -1 -1 -0
5 5 5 4 4 4 4 3 3 3 3 2 2 2 2 2 2 2 2 1 1 1 1 1 1 1 1 1 1 1 1 2 2 2 2 2 2 2 2 3 2 2 2 1 1 0 1 1 1 1 1 1 1 1 1 0 -0 -1 -1 -0 -0 -0 -0 -0 -0 -1 -1 -1 -1
5 5 5 4 4 4 4 3 3 3 3 3 2 2 2 2 2 2 2 1 1 1 1 1 1 1 1 1 1 1 1 1 1 1 2 2 2 2 2 2 2 2 2 2 1 0 0 1 1 1 1 1 1 1 1 0 -0 -1 -1 -1 -0 -0 -0 -0 -1 -1 -1 -1 -1
Height
757 757 757 757 758 758 758 758 757 757 757 757 756 756 756 756 756 756 756 755 755 754 754 754 753 753 753 752 751 751 751 750 750 749 749 748 748 748 748 748 748 748 748 747 747 747 746 746 746 745 744 744 743 743 742 742 742 742 742 743 744 745 746 746 748 750 751 753 755
756 756 757 757 757 757 757 757 757 757 757 757 757 756 756 756 756 756 756 756 755 755 755 754 754 754 753 752 752 751 751 751 750 750 749 749 748 748 748 748 748 748 748 748 748 748 748 747 747 746 746 745 745 744 744 743 743 743 742 743 743 744 745 746 747 749 750 752 753
755 756 756 756 757 757 757 757 757 757 757 757 757 756 756 756 756 756 756 756 756 756 755 755 755 754 754 753 752 752 751 751 751 750 750 749 749 749 749 749 749 749 749 749 749 749 749 748 748 747 747 746 746 745 745 745 745 744 744 744 744 745 746 746 747 748 749 750 752
755 755 755 756 756 756 757 757 757 757 757 757 757 757 756 756 756 756 756 756 756 756 756 755 755 755 754 754 753 752 752 752 751 751 751 750 750 750 749 749 749 749 749 749 749 749 749 749 749 748 748 747 747 746 746 746 746 746 746 746 746 746 747 747 747 748 748 749 750
754 754 754 755 756 756 756 756 756 757 757 757 757 757 756 756 756 756 756 756 756 756 756 755 755 755 755 754 754 753 753 752 752 752 751 751 751 751 750 750 750 750 750 750 750 750 750 750 749 749 749 748 748 747 747 747 747 747 747 747 748 748 748 748 748 748 747 747 748
754 753 754 754 755 755 756 756 756 756 756 756 756 757 757 756 756 756 756 756 756 756 755 755 755 755 755 754 754 754 753 753 753 752 752 752 751 751 751 751 751 750 750 750 750 750 750 750 750 750 750 749 749 749 748 748 748 748 748 748 749 749 750 750 749 748 747 746 748
753 753 753 753 754 754 755 755 756 756 756 756 756 756 756 756 756 756 756 756 756 756 755 755 755 755 755 755 754 754 754 754 753 753 753 752 752 752 751 751 751 751 751 751 751 751 751 750 750 750 750 750 750 750 750 749 749 749 749 749 750 750 751 751 750 749 748 747 749
753 753 752 752 753 753 754 755 755 755 755 756 756 756 756 756 756 756 756 756 756 756 756 755 755 755 755 755 754 754 754 754 754 754 753 753 753 752 752 752 752 751 751 751 751 751 751 751 751 751 751 751 751 751 751 751 750 750 750 750 751 751 751 751 751 750 750 750 751
753 752 752 752 752 753 753 754 754 755 755 755 755 755 756 756 756 756 756 756 756 756 755 755 755 755 755 754 754 754 754 754 754 754 754 753 753 753 753 752 752 752 752 752 751 751 751 751 751 751 751 751 751 751 751 751 751 751 751 751 751 752 752 752 752 752 751 751 753
752 752 752 752 752 752 752 753 753 754 754 754 755 755 755 755 756 756 756 756 755 755 755 755 755 755 754 754 754 754 754 754 754 754 753 753 753 753 753 753 752 752 752 752 752 752 752 751 751 751 751 752 752 752 752 752 752 752 752 752 752 753 753 753 753 753 753 753 754
751 751 752 751 751 751 751 752 752 753 753 754 754 754 755 755 755 755 755 755 755 755 755 755 755 755 754 754 754 754 754 754 754 753 753 753 753 753 753 753 752 752 752 752 752 752 752 752 752 752 752 752 752 752 752 753 753 753 753 753 753 754 754 754 754 754 754 754 755
750 751 751 751 751 751 751 751 751 752 752 753 753 754 754 754 754 754 755 755 755 755 755 755 754 754 754 754 754 754 754 754 753 753 753 753 753 753 753 753 753 752 752 752 752 752 752 752 752 752 752 752 753 753 753 753 753 753 754 754 754 754 755 755 755 755 755 756 756
749 750 751 751 751 751 751 750 750 751 751 752 752 753 753 753 754 754 754 754 754 754 754 754 754 754 754 754 754 754 754 754 754 753 753 753 753 753 753 753 753 752 752 752 752 752 752 752 752 753 753 753 753 753 753 753 753 754 754 755 755 755 755 756 756 756 756 757 757
748 749 750 750 750 750 750 750 750 750 750 751 751 752 752 753 753 753 753 753 754 754 754 754 754 754 754 754 754 754 754 754 754 753 753 753 753 753 753 753 753 753 753 752 752 752 752 752 753 753 753 753 753 753 753 753 753 754 754 755 755 756 756 756 757 757 757 758 758
747 747 748 749 749 749 749 749 749 749 749 750 750 751 752 752 752 752 752 753 753 753 753 753 753 753 754 754 754 754 754 754 754 753 753 753 753 753 753 753 753 753 753 753 753 753 753 753 753 753 753 753 753 753 753 753 753 754 755 755 756 756 756 757 757 758 758 758 759
745 746 747 748 748 748 748 748 748 748 748 749 749 750 751 751 751 751 751 752 752 752 753 753 753 753 753 753 754 754 754 754 754 753 753 753 753 753 753 753 753 753 753 753 753 753 753 753 753 753 753 753 753 753 753 754 754 754 755 755 756 756 757 757 758 758 758 759 760
744 744 745 746 746 747 747 747 747 747 747 748 748 749 749 750 750 751 751 751 751 752 752 752 753 753 753 753 753 754 754 754 754 753 753 753 753 753 753 753 754 754 754 754 754 754 754 754 754 754 754 754 754 754 754 754 754 755 755 756 756 756 757 758 758 758 759 759 760
742 743 743 744 745 745 746 746 746 746 746 747 747 748 748 749 749 750 750 750 750 751 751 751 752 752 753 753 753 753 754 754 754 754 753 753 754 754 754 754 754 754 754 754 754 754 755 755 755 755 755 755 755 755 755 755 755 755 756 756 756 757 757 758 758 759 759 760 760
741 741 742 742 743 743 744 745 745 745 746 746 747 747 748 748 748 749 749 749 750 750 750 751 751 752 752 752 753 753 753 753 753 754 754 754 754 754 754 754 754 754 754 755 755 755 755 755 755 755 756 756 755 755 756 756 756 756 756 757 757 757 758 758 759 759 760 760 760
739 739 740 740 741 741 742 743 744 745 745 746 746 746 747 747 748 748 748 748 749 749 750 750 751 751 751 752 752 753 753 753 753 753 754 754 754 754 754 754 754 754 755 755 755 755 755 756 756 756 756 756 756 756 756 756 756 757 757 757 758 758 758 759 759 760 760 760 761
737 737 738 738 739 740 741 741 743 744 744 745 746 746 746 747 747 747 748 748 749 749 749 749 750 750 751 751 752 752 753 753 753 753 754 754 754 754 754 754 754 755 755 755 755 756 756 756 756 756 756 756 757 757 757 757 757 758 758 758 758 759 759 759 759 760 760 761 761
735 736 736 737 738 739 740 741 741 742 743 744 745 745 746 746 746 747 747 748 748 748 748 748 749 749 750 751 751 752 752 752 753 753 753 754 754 754 754 754 755 755 755 755 756 756 756 756 756 756 757 757 757 757 757 758 758 758 758 759 759 759 759 760 760 760 761 761 761
733 734 735 736 737 738 739 740 741 741 742 743 743 744 745 745 746 747 747 748 748 748 748 748 748 749 750 750 751 751 752 752 752 753 753 753 754 754 754 754 755 755 755 755 756 756 756 756 756 757 757 757 758 758 758 758 759 759 759 759 760 760 760 760 761 761 761 762 762
732 733 734 735 736 736 737 738 739 740 741 741 742 743 744 745 745 746 747 747 747 747 747 747 748 749 749 750 750 751 751 751 752 752 752 753 753 754 754 754 755 755 755 755 756 756 756 756 757 757 757 758 758 758 759 759 759 760 760 760 760 761 761 761 761 761 762 762 763
731 732 732 733 734 735 736 737 737 738 739 740 741 741 742 743 744 745 746 746 746 747 747 747 748 748 749 749 750 750 751 751 751 752 752 752 753 753 753 754 754 755 755 755 756 756 756 756 757 757 757 758 758 759 759 760 760 760 761 761 761 761 761 761 761 762 762 763 763
729 730 731 731 732 733 734 735 736 736 737 738 739 740 741 742 743 744 745 745 746 746 746 747 747 748 748 748 749 749 750 750 751 751 751 752 752 753 753 753 754 754 755 755 755 756 756 756 757 757 758 758 759 759 760 760 760 761 761 761 761 761 761 762 762 762 762 763 763
728 728 729 730 731 732 732 733 734 735 736 737 738 739 740 741 742 743 744 744 745 746 746 746 747 747 747 748 748 749 749 750 750 751 751 751 752 752 752 753 753 754 754 755 755 756 756 756 757 757 757 758 758 759 759 760 760 761 761 761 761 761 762 762 762 762 763 763 763
726 727 727 728 729 730 731 731 732 733 734 735 736 737 738 739 741 741 742 743 744 745 745 746 746 747 747 747 747 748 748 749 750 750 751 751 751 752 752 752 753 753 754 754 755 756 756 757 757 757 757 757 758 758 759 760 760 761 761 761 761 761 762 762 762 763 763 763 763
724 725 726 726 727 728 729 730 731 731 732 733 734 736 737 738 739 740 741 741 742 743 744 745 745 746 746 746 747 747 748 748 749 749 750 750 751 751 752 752 752 753 753 754 755 755 756 756 757 757 757 757 757 758 759 759 760 760 761 761 761 761 762 762 762 763 763 763 764
723 724 724 725 725 726 727 728 728 729 731 732 733 734 735 736 737 738 739 740 741 741 742 743 744 745 745 746 746 747 747 748 748 749 749 750 750 751 751 751 752 752 753 754 754 755 756 756 757 757 757 756 757 757 758 759 759 760 760 761 761 761 762 762 762 763 763 763 764
721 722 723 723 724 724 725 726 727 728 729 731 731 733 733 734 735 736 736 737 739 740 741 742 743 744 744 745 746 746 747 747 748 748 748 749 749 750 750 751 751 752 752 753 754 755 755 756 756 757 757 756 756 757 758 758 759 759 760 760 761 761 762 762 762 763 763 763 764
720 721 721 722 722 723 723 724 726 727 728 729 730 731 731 732 733 734 735 736 737 739 740 741 742 742 743 744 745 746 746 746 747 747 748 748 749 749 750 750 751 751 752 752 753 754 755 756 756 756 756 756 756 757 757 758 758 759 759 760 760 761 761 762 762 762 763 763 764
718 719 719 720 720 721 722 723 724 725 726 727 728 729 730 730 731 732 734 735 736 737 738 739 740 741 741 742 744 744 745 746 746 747 747 748 748 749 749 750 750 751 751 752 753 754 755 755 756 756 756 756 756 756 757 757 758 758 759 759 760 760 761 761 761 762 762 763 763
716 717 717 718 719 720 721 721 722 723 724 725 726 727 728 729 730 731 732 733 734 735 736 737 738 739 740 741 742 743 744 745 746 746 747 747 748 748 748 749 749 750 751 751 752 753 754 755 755 756 756 756 756 756 757 757 758 758 758 759 759 760 760 761 761 761 762 762 763
715 715 716 716 717 718 719 720 721 722 723 723 724 725 726 727 728 729 730 731 732 734 735 736 737 738 739 740 741 742 743 744 745 746 746 746 747 747 748 748 749 750 750 751 751 752 753 754 755 755 756 755 755 756 756 757 757 758 758 759 759 759 760 760 761 761 761 762 762
713 714 714 715 716 717 718 719 719 720 721 721 722 723 724 725 726 727 728 730 731 733 734 735 736 737 738 739 740 741 742 743 744 745 745 746 746 746 747 747 748 749 750 750 751 752 753 753 754 755 755 755 754 755 756 756 757 757 758 758 758 759 759 760 760 761 761 761 762
711 712 713 714 714 715 716 717 718 718 719 719 720 721 722 723 724 726 727 729 730 731 732 733 734 735 736 736 737 739 740 741 743 744 744 745 745 746 746 747 747 748 749 750 750 751 752 753 753 754 754 754 754 754 755 756 756 757 757 758 758 758 759 759 760 760 761 761 761
710 711 711 712 713 714 715 716 716 716 717 717 718 719 720 721 723 724 726 727 728 729 730 731 732 732 733 734 736 737 739 741 742 743 743 744 744 745 745 746 746 747 748 749 750 751 751 752 753 753 753 753 753 753 754 755 756 756 757 757 757 758 758 758 759 759 760 761 761
709 709 710 711 711 712 713 713 714 714 715 716 716 717 719 720 721 722 723 725 726 727 728 729 730 731 732 733 735 736 738 739 740 741 742 743 743 744 745 745 746 746 747 748 749 750 751 751 752 753 753 752 752 753 754 754 755 756 756 757 757 757 758 758 758 759 760 760 761
707 707 708 709 709 710 711 711 711 712 713 714 715 716 717 718 719 721 722 723 724 725 726 727 728 729 731 732 734 735 736 738 739 740 741 742 743 743 744 745 745 746 747 747 748 749 750 751 751 752 752 751 752 752 753 754 754 755 756 756 756 757 757 757 758 758 759 760 761
706 706 706 707 707 708 708 709 709 710 711 712 713 714 716 717 718 720 721 722 723 724 725 726 727 728 730 731 732 733 735 736 737 738 740 741 742 743 743 744 744 745 746 747 747 748 749 750 751 751 751 751 751 752 753 753 754 754 755 755 756 756 756 757 757 758 759 759 760
Wind_Speed
11 8 6 5 5 5 5 4 4 3 3 2 2 1 1 1 2 4 4 5 5 6 6 6 7 7 7 8 9 10 11 11 10 10 9 9 8 8 8 8 9 9 9 9 9 9 9 9 10 12 14 15 14 13 11 10 11 14 17 19 21 23 26 29 30 31 31 31 31
12 10 8 6 6 5 5 4 4 4 4 3 3 2 2 1 1 2 3 3 3 4 4 5 5 6 7 8 9 9 10 11 11 11 10 10 9 8 8 7 7 7 8 8 8 9 8 8 8 10 12 13 14 14 14 12 11 12 14 16 18 19 22 25 28 31 32 32 32
13 12 10 8 7 6 5 5 5 5 5 4 4 4 3 2 1 0 2 2 2 2 3 3 4 5 6 7 8 9 10 10 10 10 10 10 9 9 8 7 7 6 6 6 7 7 8 7 8 9 10 11 12 13 14 13 12 12 13 14 15 17 18 21 24 26 29 30 30
13 13 11 10 8 7 6 5 6 6 5 6 6 5 4 4 4 2 1 1 1 1 2 2 3 4 5 6 7 8 9 9 10 10 10 10 9 9 8 7 6 6 5 5 5 6 6 7 7 8 9 10 11 12 12 12 12 13 13 14 14 15 16 17 20 23 26 27 27
13 13 12 10 9 8 7 6 6 6 7 7 7 6 6 6 5 4 2 1 1 1 2 3 3 3 4 5 6 7 8 8 9 9 9 9 9 8 8 7 6 5 5 4 4 4 5 5 5 6 7 8 10 10 11 10 11 12 13 13 13 13 13 14 16 20 23 24 24
12 13 12 11 10 9 8 7 7 7 8 8 8 7 7 7 7 5 4 2 2 2 3 3 3 3 4 4 5 6 7 7 8 8 9 9 8 8 7 6 6 5 4 4 3 3 3 4 4 4 5 6 8 9 9 9 9 10 11 12 12 13 13 12 13 15 19 22 22
12 12 12 11 10 10 9 8 8 8 8 9 8 7 7 7 7 6 5 4 3 3 3 4 4 4 4 4 4 5 6 6 7 7 8 8 8 7 6 5 4 4 3 3 3 2 2 2 3 3 3 4 5 6 7 7 8 9 10 11 11 11 12 12 12 13 15 17 19
12 12 11 11 11 10 10 9 9 8 9 9 9 8 7 8 8 7 6 5 5 5 4 5 5 5 5 5 5 5 6 6 6 7 7 7 7 7 5 4 3 3 2 2 2 2 2 2 2 2 2 2 2 4 5 6 6 7 8 10 10 10 10 11 12 12 13 14 15
14 13 12 11 12 11 11 10 10 9 9 9 10 9 8 8 8 8 7 7 7 6 6 6 6 7 7 6 6 6 6 6 6 6 6 6 6 6 5 4 3 2 2 1 1 2 2 1 1 1 1 2 2 2 2 3 4 5 7 8 9 9 8 9 10 11 12 13 13
15 14 13 13 13 13 12 11 11 10 9 9 10 10 9 8 9 9 9 8 8 8 7 7 8 8 7 6 6 6 6 7 6 6 6 5 5 5 4 3 2 2 2 2 2 1 1 1 1 1 1 1 2 2 1 1 2 3 5 6 7 7 7 7 8 9 10 11 11
16 15 14 14 14 14 13 13 12 11 10 9 10 10 9 9 9 9 10 9 9 9 8 8 8 8 7 7 6 7 7 7 6 6 5 5 4 4 3 3 2 2 2 2 2 2 2 2 2 1 1 1 2 2 2 2 2 1 2 3 4 5 6 6 6 7 8 9 10
17 16 15 15 15 15 14 14 14 13 12 11 11 11 10 10 10 10 10 10 10 9 9 9 9 9 8 7 7 7 7 7 6 6 5 4 4 3 3 2 2 1 2 2 2 3 3 3 3 2 1 0 1 2 2 2 2 2 1 0 1 3 4 5 5 6 6 7 8
17 17 16 16 16 16 16 16 15 15 14 13 12 12 12 11 11 11 11 11 10 9 9 9 10 9 9 8 8 8 8 7 6 5 4 3 3 3 3 2 1 1 1 2 2 3 4 4 4 3 2 1 1 1 1 1 2 2 2 2 1 1 1 2 3 4 4 5 6
18 17 17 17 17 17 17 17 17 16 16 15 14 13 13 13 12 12 12 11 11 10 10 10 10 10 9 9 8 8 8 7 5 4 3 3 2 2 2 2 1 1 0 1 2 3 4 4 4 4 3 2 2 1 1 1 0 1 1 2 2 2 2 1 1 1 2 3 4
19 18 18 18 18 19 19 18 18 18 17 17 15 14 14 15 14 13 13 12 11 11 11 11 11 11 10 9 9 8 7 6 4 3 2 2 1 1 1 1 2 2 1 1 1 2 3 4 4 4 3 2 2 2 2 1 1 1 0 1 1 1 2 2 2 2 2 2 2
20 19 19 19 19 20 20 20 19 19 18 18 17 16 16 16 15 15 14 14 13 12 12 12 12 12 11 10 9 8 6 5 4 3 3 3 2 1 1 1 2 3 2 2 1 1 2 3 4 4 3 2 2 2 2 1 1 1 1 0 0 1 1 2 2 2 3 3 2
21 21 20 20 20 21 21 21 21 20 19 19 18 17 17 17 16 16 15 15 14 13 12 12 12 12 11 10 9 7 6 5 4 4 3 3 3 3 3 2 2 3 3 3 2 1 2 3 3 3 3 2 2 2 2 1 1 1 1 2 1 1 1 1 1 2 2 3 3
23 23 22 22 22 22 22 22 22 21 20 19 18 18 18 18 17 17 16 15 15 14 13 13 12 12 11 10 8 7 6 4 4 4 3 3 4 4 4 3 3 3 4 4 3 2 2 2 3 2 2 2 2 2 2 2 2 2 2 2 3 3 3 2 2 1 1 1 1
25 24 24 24 24 23 23 23 23 22 21 20 19 18 18 18 18 17 17 16 15 14 14 13 12 12 11 10 9 7 6 5 4 4 3 3 4 5 5 5 4 4 5 5 4 3 3 2 2 2 1 1 1 1 2 3 3 3 3 3 3 3 3 3 3 2 2 1 1
27 26 26 26 25 24 24 24 24 23 21 20 20 19 19 19 19 18 17 16 15 14 14 13 13 12 11 10 9 7 6 5 4 4 4 3 4 5 6 6 6 6 5 5 5 5 4 4 3 2 2 1 1 1 1 2 3 3 3 3 3 4 4 3 3 3 3 2 2
28 28 28 27 26 26 25 24 24 22 21 21 21 20 20 19 19 19 18 16 14 14 14 13 13 12 12 11 9 8 7 6 5 5 4 4 4 4 5 6 7 8 7 6 6 6 6 5 4 3 3 2 2 2 2 1 2 3 3 3 3 3 3 3 2 2 2 2 2
29 29 29 28 27 27 26 25 24 22 22 21 21 21 21 20 20 19 18 15 14 14 14 14 13 13 12 11 10 8 7 6 6 6 5 4 4 4 5 6 8 9 8 8 7 7 7 6 6 5 4 4 3 3 2 2 2 2 2 3 3 3 3 3 3 2 2 1 1
29 29 29 28 28 27 26 25 24 23 22 22 22 22 22 21 20 19 18 16 16 15 15 14 13 12 12 11 10 9 8 8 7 7 6 5 5 5 5 6 8 9 9 9 8 8 8 7 7 7 6 6 5 4 3 3 2 2 2 2 3 3 4 4 4 4 4 3 3
28 28 28 28 28 27 26 26 25 24 23 22 22 22 22 22 21 20 19 18 18 17 16 15 14 13 12 11 10 10 10 9 9 8 7 6 6 6 6 6 7 9 10 10 10 10 9 8 8 7 7 7 6 5 5 4 4 4 4 4 4 4 4 5 6 6 5 5 4
26 27 27 27 27 27 27 26 26 25 24 23 23 22 22 22 21 21 20 20 19 19 17 16 15 14 13 12 12 11 11 11 10 9 9 8 8 7 7 7 7 8 9 11 11 11 10 9 9 8 8 8 7 7 6 6 5 5 5 5 5 5 5 6 6 6 6 6 5
25 26 26 27 27 27 27 27 27 26 25 24 23 23 23 22 22 21 21 21 21 20 19 18 17 16 15 14 13 13 12 12 11 11 10 10 9 9 8 8 7 7 8 10 11 11 9 9 9 9 9 8 8 8 8 8 7 7 7 7 7 7 6 6 6 6 6 6 6
24 25 26 26 26 26 27 27 27 26 25 25 24 24 23 23 23 23 23 22 22 21 20 20 19 18 17 16 15 14 14 13 13 12 12 11 11 11 10 10 9 8 8 9 10 10 9 9 8 9 9 9 9 10 10 10 9 8 8 7 7 7 6 6 6 6 7 7 6
24 24 25 25 26 26 27 27 26 26 26 26 25 25 24 24 24 24 24 23 23 22 22 22 21 20 19 18 17 16 15 14 14 13 13 13 12 12 12 11 11 10 9 9 10 10 10 9 9 9 9 10 10 10 10 10 10 9 8 8 7 6 6 5 5 6 6 7 7
24 24 24 25 25 26 26 26 27 27 27 26 26 25 25 25 25 25 25 24 24 24 24 24 23 22 22 21 19 17 16 15 14 14 14 14 13 13 12 12 12 11 11 11 11 11 10 10 10 9 10 10 11 11 11 11 11 10 9 8 7 6 6 5 5 5 6 6 7
24 24 24 25 25 25 26 26 27 27 26 26 26 26 26 26 26 27 26 26 26 26 25 25 25 25 24 23 21 19 17 16 15 15 15 15 14 13 13 12 12 12 12 12 12 11 11 11 11 10 10 11 11 11 11 11 11 10 10 9 8 7 6 6 6 6 6 6 7
23 23 24 24 25 25 26 26 26 26 26 26 26 26 27 28 28 28 28 28 27 26 26 26 26 26 25 24 22 20 18 17 16 16 15 15 14 14 13 12 12 13 13 13 13 12 12 11 11 11 11 12 12 12 12 12 11 11 10 9 9 8 7 7 7 7 7 7 7
23 23 24 24 25 25 25 25 25 25 26 26 26 27 28 29 29 29 29 28 27 27 27 27 28 27 26 25 23 21 20 18 17 16 16 15 14 14 13 12 12 13 13 14 13 13 12 12 12 12 12 12 12 12 12 12 12 11 10 10 9 9 8 8 8 7 7 7 7
23 23 24 24 25 25 25 25 25 25 26 26 27 28 29 29 29 29 29 29 28 28 29 30 30 29 28 27 25 23 21 20 18 17 16 15 14 14 14 13 12 13 13 14 14 13 13 13 13 12 12 13 13 12 12 12 12 11 11 10 10 10 10 9 8 8 8 8 7
24 24 24 24 25 24 24 24 25 25 26 26 27 28 29 29 29 29 29 29 29 30 30 31 31 30 29 27 26 24 22 21 19 17 16 15 14 14 14 14 13 13 14 15 14 13 13 13 13 13 13 13 13 13 12 12 12 12 11 11 11 11 11 10 10 9 8 8 8
24 24 24 24 24 24 24 24 24 25 26 27 28 28 29 29 30 30 30 30 30 30 30 31 31 30 28 27 26 24 23 22 20 18 17 16 15 15 15 15 14 14 14 15 14 14 14 14 14 13 13 14 14 14 12 12 12 11 11 11 11 11 12 12 11 10 9 8 8
24 24 24 24 24 23 23 23 24 25 26 27 28 28 29 29 30 30 30 30 29 29 30 30 30 30 29 28 27 26 25 23 21 19 17 16 16 16 16 16 15 15 15 16 15 14 14 14 14 14 14 15 16 15 13 12 11 11 10 10 10 11 11 12 12 12 11 10 9
24 24 24 24 23 23 23 23 24 25 26 27 28 29 29 29 30 30 29 29 28 29 29 30 30 30 30 30 29 28 26 24 22 20 18 17 17 17 17 16 16 16 16 17 15 14 14 14 15 15 16 17 18 16 14 12 11 10 9 9 8 9 10 12 13 13 12 11 11
24 24 24 24 24 23 23 23 24 25 26 27 28 28 28 29 29 29 29 29 29 29 29 30 30 31 31 31 30 28 26 24 22 21 20 19 18 17 17 17 16 16 17 18 16 15 15 15 15 15 16 19 19 18 16 14 12 11 10 8 8 8 9 11 13 14 14 13 12
23 24 24 24 24 24 24 24 25 26 27 27 27 27 27 28 28 28 29 29 30 30 30 30 30 31 31 30 29 28 27 25 23 22 20 19 18 17 17 17 17 17 17 18 17 16 15 15 15 15 16 19 20 19 17 15 13 11 10 9 8 8 9 11 12 14 14 14 13
23 23 24 25 25 25 25 25 26 27 27 27 27 27 27 27 27 28 28 29 29 30 30 30 30 30 30 29 29 28 28 26 24 23 21 20 18 17 17 17 17 17 17 19 18 17 16 16 16 16 17 20 20 19 17 16 14 12 11 10 9 9 9 10 12 14 15 15 14
22 23 24 25 25 25 26 26 27 27 27 26 27 26 26 27 27 27 27 28 29 29 29 29 29 29 29 28 28 28 28 27 26 24 22 21 19 18 18 17 17 17 18 19 19 18 17 16 16 17 19 20 20 19 17 16 14 13 12 11 10 10 9 10 11 13 14 15 15
Wind_Direction
183 185 186 190 214 235 241 237 233 225 226 244 255 273 329 37 52 50 44 37 34 33 33 34 33 29 25 24 27 30 33 35 36 37 37 37 36 34 33 34 36 41 46 52 57 59 60 62 67 72 75 76 78 83 94 115 137 153 163 168 173 180 186 190 192 192 191 190 190
187 189 190 190 208 225 233 231 226 213 205 211 226 240 246 253 71 65 57 45 34 27 24 24 24 21 18 17 20 24 28 31 32 33 34 35 35 32 29 27 27 28 32 38 45 53 58 61 66 73 78 79 79 78 80 89 108 128 141 149 157 165 173 179 185 188 190 191 192
191 191 192 194 203 213 219 221 223 215 202 199 212 228 245 259 270 44 64 56 37 14 5 9 13 14 13 12 15 18 23 26 29 30 31 32 33 32 29 26 24 23 23 24 30 38 48 56 64 72 78 82 83 82 80 79 87 100 112 124 136 147 155 163 171 177 181 184 186
194 192 193 196 203 211 216 221 223 219 208 199 206 217 235 254 267 280 331 42 31 331 326 339 353 5 10 9 10 13 17 21 23 26 27 29 30 29 28 25 24 24 24 23 20 21 28 41 56 68 75 79 82 84 84 82 81 84 90 100 114 126 136 145 156 164 168 171 174
196 195 196 198 203 207 213 221 220 218 212 204 203 210 223 237 250 261 271 291 252 263 290 311 328 347 0 5 5 8 11 15 17 19 21 23 25 26 25 24 23 25 28 28 23 13 11 17 37 57 68 73 77 80 84 86 86 84 84 87 93 102 113 125 139 150 157 161 166
202 199 200 201 200 202 207 214 219 218 214 207 203 206 214 223 232 239 246 250 250 265 281 292 307 322 337 347 353 358 2 6 10 12 13 15 16 19 21 22 22 22 26 29 28 21 8 1 10 31 53 65 71 75 79 84 89 91 90 87 87 89 94 102 117 134 147 155 162
214 207 205 202 198 197 202 208 214 219 217 208 205 203 206 213 221 228 234 241 251 261 271 281 291 300 310 320 331 340 348 353 358 3 6 8 9 11 14 20 22 21 21 24 26 26 17 2 356 2 21 45 61 68 72 76 86 93 96 94 91 89 89 92 98 111 128 144 155
226 218 211 203 196 195 200 206 210 216 218 211 205 203 205 207 214 223 232 242 250 258 267 276 281 286 292 301 312 323 332 339 345 351 358 3 5 6 7 14 23 28 26 20 21 25 23 10 352 342 344 360 29 50 60 65 77 90 97 98 96 93 91 91 93 97 107 122 137
228 222 214 205 198 197 199 203 207 213 217 215 205 202 204 207 213 222 232 241 248 254 260 268 274 277 280 287 299 311 320 327 334 341 351 0 5 5 4 8 23 37 48 42 33 28 24 12 349 312 303 308 326 359 33 48 61 79 92 98 99 98 94 91 93 95 99 106 116
229 222 213 205 202 201 201 202 207 212 216 218 208 202 203 208 214 221 227 233 240 245 250 257 263 267 271 279 290 302 312 320 327 335 346 358 8 10 7 6 19 42 63 81 83 68 42 26 10 321 270 264 273 286 302 340 20 62 84 92 99 101 99 94 91 94 99 102 108
233 225 216 208 206 205 205 205 207 211 216 218 212 205 204 210 214 218 222 226 233 240 247 252 255 259 267 275 287 299 307 314 322 330 341 355 10 16 15 9 12 30 54 76 91 89 75 55 36 16 317 252 247 252 260 270 288 334 76 88 95 99 100 98 93 92 96 104 109
236 229 221 214 211 210 210 209 210 212 215 218 215 211 210 214 215 217 220 222 229 237 243 249 254 257 264 274 286 297 305 312 318 324 332 347 7 21 25 20 10 13 26 42 66 77 78 69 59 47 31 300 231 229 240 253 264 264 253 150 109 100 100 100 96 93 94 103 111
237 232 225 218 214 212 213 213 213 213 215 217 217 215 214 217 218 218 219 221 226 230 234 241 250 256 264 275 288 299 305 310 313 316 322 333 356 21 38 41 35 15 12 18 36 56 68 68 65 63 63 76 108 155 193 233 254 257 250 239 228 188 125 110 104 100 99 103 109
238 234 229 222 217 215 214 214 214 214 215 216 217 216 216 217 218 219 220 222 224 226 229 236 247 257 266 278 289 297 302 305 305 303 303 311 334 12 49 70 90 111 55 17 23 42 58 64 65 68 75 87 90 90 90 104 196 259 259 253 240 228 211 189 168 142 125 116 111
237 235 232 226 220 217 216 215 215 215 216 216 216 216 216 217 218 219 221 223 223 223 227 236 247 259 268 276 284 290 294 296 294 282 269 265 281 321 70 98 124 145 155 140 42 45 58 65 64 67 75 90 101 92 79 68 63 47 319 273 257 238 224 219 220 215 197 171 140
236 235 233 229 224 220 218 217 216 216 216 216 216 215 215 217 218 220 221 222 222 223 227 235 246 257 266 272 277 281 283 283 278 265 243 223 219 217 191 141 139 149 159 165 152 90 77 77 72 69 72 90 109 110 92 70 64 67 72 84 210 231 224 222 225 224 222 219 202
235 234 233 231 228 225 222 220 218 217 216 216 215 214 214 216 217 220 222 223 224 224 227 232 240 249 258 264 268 271 270 267 264 259 241 213 199 198 199 183 151 150 159 169 169 136 101 91 83 76 73 83 104 117 115 102 90 92 106 114 127 145 165 187 205 220 229 232 224
234 234 233 232 230 229 226 224 221 219 218 217 216 215 215 216 218 220 223 225 225 225 226 229 234 241 248 255 259 259 257 252 253 252 242 217 195 192 194 189 166 156 162 170 171 159 132 111 99 89 81 79 97 120 134 142 142 138 131 129 131 138 142 147 150 156 177 223 234
234 234 233 233 233 232 231 228 225 223 220 219 218 217 217 217 219 222 224 226 227 226 226 227 229 234 240 245 248 247 243 240 240 241 238 223 201 193 191 187 176 168 168 173 175 171 161 146 133 122 114 104 116 139 151 157 161 161 156 147 143 142 142 140 135 129 119 111 108
235 234 234 234 235 235 234 232 230 227 224 221 220 220 219 219 221 223 224 226 226 225 224 224 226 229 233 236 237 235 233 232 232 231 228 220 205 196 192 186 180 176 174 177 180 178 174 169 170 171 165 165 188 206 192 171 166 168 170 168 161 156 153 152 146 135 126 118 114
236 237 237 237 237 237 236 235 234 231 227 223 221 220 221 221 222 223 225 226 224 221 220 221 222 224 228 229 229 227 226 227 228 227 224 216 203 198 194 186 182 179 178 181 184 182 180 180 186 193 196 196 206 227 234 210 180 175 177 182 182 179 178 178 173 165 150 137 133
235 238 239 239 238 238 238 237 236 234 230 226 222 221 221 222 223 224 225 225 221 218 216 216 217 220 223 225 226 225 225 228 229 228 225 217 203 195 191 187 184 184 185 186 188 186 184 186 193 199 205 208 213 221 232 234 219 204 195 196 199 201 204 208 211 211 210 208 201
235 236 238 239 239 238 238 237 236 235 233 229 225 222 221 222 223 223 223 223 220 216 214 213 213 215 219 222 225 227 227 228 229 229 228 223 213 203 195 190 189 189 189 188 189 189 190 191 197 201 205 208 212 218 224 230 234 236 236 231 224 222 220 222 223 225 225 226 231
234 234 236 237 238 238 237 236 236 235 233 230 226 223 221 221 221 222 222 221 219 217 214 211 210 212 215 220 225 229 230 230 229 228 228 227 222 217 210 202 195 193 192 189 189 192 194 196 200 204 207 207 209 213 218 225 233 240 249 255 254 247 237 231 227 227 226 226 228
233 233 233 235 236 237 237 236 235 234 232 231 227 224 221 220 220 220 221 221 220 217 214 212 211 211 214 218 223 228 232 233 233 231 229 227 227 227 224 218 207 200 195 189 188 192 198 198 199 202 205 206 206 209 213 220 227 236 245 255 260 259 251 241 234 231 229 226 226
233 232 232 233 234 235 235 235 234 233 232 230 227 224 221 220 219 219 220 221 220 218 215 213 212 212 214 217 221 226 231 234 235 235 232 229 229 229 230 227 221 213 202 193 189 192 199 200 200 201 203 204 205 206 209 214 221 231 242 251 258 259 256 251 243 236 233 232 230
232 231 231 231 231 232 233 235 235 233 231 228 225 223 220 219 218 219 220 221 221 219 216 215 214 213 215 217 221 225 229 232 234 235 234 232 230 230 231 230 228 222 212 200 193 195 200 201 203 206 207 206 206 207 209 212 217 225 235 245 252 255 254 251 246 240 237 235 234
231 230 230 229 229 230 232 233 233 232 230 227 224 221 219 217 217 218 219 221 220 219 217 215 214 214 215 217 221 225 229 232 234 234 233 232 231 231 231 230 229 226 220 208 200 200 202 202 207 212 213 212 210 209 210 212 215 220 228 236 243 248 249 246 242 238 236 236 236
232 230 228 227 227 228 229 230 230 230 229 227 224 220 218 216 215 216 218 219 219 218 217 214 213 213 215 217 220 224 228 231 233 233 233 232 231 230 229 228 226 225 221 213 207 204 204 204 207 213 218 219 215 212 213 214 216 218 222 228 233 238 242 244 243 241 239 237 237
232 230 227 226 226 226 226 227 228 229 228 226 223 219 216 215 215 215 216 217 218 218 215 213 212 212 214 217 220 223 225 228 230 231 232 232 232 230 228 226 223 221 217 212 208 206 205 205 205 210 218 224 221 216 215 217 218 219 220 222 226 230 234 239 243 246 245 243 241
232 229 227 226 226 226 226 227 228 227 226 224 221 218 216 215 214 214 215 216 217 216 214 212 211 213 215 218 220 222 224 225 227 228 230 232 233 232 229 225 221 217 212 208 207 207 206 206 204 206 214 225 225 221 218 219 222 223 223 222 222 225 229 233 238 244 247 248 247
233 230 228 226 226 226 226 226 226 225 223 222 220 218 216 215 214 214 214 215 215 214 212 211 211 213 215 217 219 221 222 223 223 225 227 230 234 234 232 227 222 215 208 204 206 207 208 207 204 204 210 222 226 224 220 220 224 227 229 229 227 227 228 232 234 237 241 246 248
233 230 228 227 226 226 226 225 224 222 221 220 219 217 216 215 214 214 214 214 213 211 210 210 211 212 213 215 217 218 220 220 221 222 224 228 232 235 234 230 224 215 207 202 204 207 209 208 205 204 209 220 226 225 221 219 223 227 231 234 235 234 233 234 234 233 234 240 244
232 230 229 228 227 226 225 224 222 220 219 218 217 217 216 215 214 213 213 212 211 211 211 211 212 213 215 216 217 217 218 218 218 219 221 225 229 233 234 232 226 216 207 201 204 208 209 208 206 204 208 217 224 225 220 217 219 223 228 233 236 237 237 236 235 233 232 234 240
232 230 229 229 228 226 224 222 220 218 217 216 216 216 216 214 213 213 212 211 210 210 211 212 214 215 217 218 218 218 217 216 216 216 218 221 225 229 232 232 227 217 208 202 205 209 210 209 208 206 207 215 220 221 217 214 214 217 222 228 232 235 235 235 235 233 230 230 235
233 230 230 229 228 226 223 221 219 217 216 215 215 215 214 214 214 213 212 210 208 208 209 211 213 214 215 216 216 217 216 215 215 215 216 218 222 225 228 229 225 218 209 203 206 210 211 210 208 207 208 214 217 216 213 211 210 213 217 223 229 232 232 231 231 230 229 228 230
234 232 230 230 228 226 223 221 218 216 215 216 216 215 214 214 214 213 211 208 206 207 208 210 211 212 213 214 214 214 215 215 214 214 215 216 219 222 224 226 223 217 210 204 207 210 212 210 207 207 210 216 218 217 213 209 209 211 215 221 226 229 229 227 227 227 226 226 227
236 233 231 229 228 226 224 221 219 217 217 217 217 217 216 214 213 211 209 207 206 206 208 209 210 211 213 214 214 214 214 214 215 215 216 216 217 219 221 222 221 217 210 205 206 210 212 210 207 207 212 218 221 220 217 214 212 215 219 224 228 229 227 224 223 223 224 224 225
238 235 232 229 228 227 225 222 221 220 220 220 219 217 216 214 212 211 209 208 207 208 208 209 210 212 213 213 212 212 213 214 215 216 217 217 218 218 219 220 220 217 211 206 205 209 212 211 207 207 214 221 222 223 222 221 219 220 225 229 232 232 228 223 220 220 220 220 222
240 236 233 230 229 227 225 224 224 224 223 222 219 217 216 214 213 211 209 208 208 209 210 210 211 212 212 211 210 211 212 213 215 216 217 218 218 218 219 219 219 216 212 207 205 208 211 211 208 208 214 222 223 223 224 225 224 225 229 233 236 236 231 225 219 217 217 217 218
243 238 234 232 230 228 226 226 226 226 225 223 221 219 218 216 214 212 210 209 209 210 210 211 212 211 210 209 209 210 211 213 214 215 216 217 217 217 217 218 217 215 212 208 205 207 210 210 208 210 216 221 222 222 223 224 224 225 229 234 237 238 235 227 219 215 214 215 216